sat.trackr.live / text

‹ back to catalog

STARLINK-4180

NORAD 53278 · 2022-086AN

PAYLOAD ACTIVE UNKNOWN

§ Identity

Operator
Country
US
Launch date
2022-07-24
Launch site
AFETR
Launch vehicle
Mass (kg)
RCS (m²)

Purposes: comms

External: N2YO · Heavens-Above · Gunter

§ Orbital elements

Epoch: 2026-05-24T20:44:56.834880Z

Period
95.44 min
Inclination
53.2138°
Eccentricity
0.0000643
Mean motion
15.08830822 rev/d
Perigee alt
539.3 km
Apogee alt
540.2 km
Semi-major
6,917.9 km
B*
-2.1108e-5
RAAN
202.1567°
Arg perigee
93.0947°
Mean anomaly
267.0119°
Rev number
21,269

§ Raw data

STARLINK-41801 53278U 22086AN  26144.86454670 -.00000623  00000+0 -21108-4 0  99982 53278  53.2138 202.1567 0000643  93.0947 267.0119 15.08830822212690

JSON: /api/v1/satellites/53278 · /tle

For live sub-satellite position, see the globe view (requires WebGL).

§ Visibility from observer

Set your observer location to see the next 7 days of passes ≥ 10°. The values pass through the URL so the page stays shareable.

No JS? Fill the form by hand. The geolocation button needs JavaScript.